[[{"header":{"parameterUnit":"m.s-1","parameterCategory":1,"la1":30.2991,"la2":30.254,"lo1":-89.0895,"lo2":-89.0444,"dy":0.0017,"dx":0.0017,"nx":28,"ny":28,"refTime":"2024-05-15T03:00:00:Z","depth":0,"parameterNumber":2,"parameterNumberName":"U-component_of_WINDS"},"data":[0,0,0,0,0,0,0,0,0,0,0,0,0,0,0,0,0,0,0,0,0,0,0,0,0,0,0,0,0,0,0,0,0,0,0,0,0,0,0,0,0,0,0,0,0,0,0,0,0,0,0,0,0,0,0,0,0,0,-1.9049,-1.9049,0,-1.9034,-1.9034,-1.9034,-1.8985,-1.8984,-1.8983,-1.8982,-1.8966,-1.8967,-1.8967,0,0,0,0,0,0,0,0,0,0,0,0,0,-1.9038,-1.9039,-1.905,-1.9049,-1.9049,-1.9034,-1.9034,-1.9034,-1.8985,-1.8984,-1.8982,-1.8981,-1.8966,-1.8967,-1.8967,0,0,0,0,0,0,0,0,0,0,0,0,0,-1.9035,-1.9039,-1.905,-1.9023,-1.902,-1.9034,-1.9034,-1.9034,-1.8985,-1.8984,-1.8982,-1.898,-1.8966,-1.8967,-1.8968,-1.9006,0,0,-1.897,-1.8971,0,0,0,0,0,0,0,0,-1.9035,-1.9035,-1.9027,-1.9025,-1.9022,-1.901,-1.9024,-1.9024,-1.8986,-1.8999,-1.8982,-1.898,-1.8982,-1.8981,-1.8982,-1.9005,-1.9004,-1.897,-1.8971,-1.8971,-1.8972,0,0,0,0,0,0,0,-1.9036,-1.9036,-1.9043,-1.9027,-1.9024,-1.9012,-1.901,-1.9024,-1.9,-1.8997,-1.8994,-1.8993,-1.898,-1.8981,-1.8981,-1.9004,-1.897,-1.8971,-1.8972,-1.8972,-1.9059,-1.9061,0,0,0,0,0,0,-1.9039,-1.9036,-1.9044,-1.9043,-1.9025,-1.9014,-1.9011,-1.9015,-1.8999,-1.8995,-1.8994,-1.899,-1.8981,-1.898,-1.8981,-1.9025,-1.8971,-1.8972,-1.8973,-1.9057,-1.9059,-1.9061,0,0,0,0,0,0,-1.9039,-1.9041,-1.9044,-1.9039,-1.9038,-1.9016,-1.9021,-1.9016,-1.9017,-1.8997,-1.8992,-1.9,-1.8979,-1.8979,-1.9,-1.9023,-1.8973,-1.8973,-1.9055,-1.9058,-1.906,-1.9113,0,0,0,0,0,0,-1.9039,-1.9041,-1.9055,-1.9039,-1.9039,-1.9064,-1.9022,-1.9017,-1.9019,-1.9014,-1.9001,-1.8997,-1.8978,-1.8999,-1.9001,-1.9024,-1.8974,-1.9053,-1.9056,-1.906,-1.9109,-1.9117,-1.9124,0,0,0,0,0,-1.9039,-1.907,-1.9056,-1.9057,-1.9056,-1.9065,-1.9065,-1.9042,-1.9021,-1.9035,-1.9022,-1.8998,-1.9021,-1.9002,-1.9003,-1.9027,-1.9051,-1.9055,-1.9059,-1.9106,-1.9116,-1.9124,0,0,0,0,0,0,-1.9088,-1.9067,-1.9051,-1.9078,-1.9074,-1.9057,-1.9074,-1.9053,-1.9055,-1.905,-1.9023,-1.902,-1.9045,-1.9038,-1.9017,-1.9064,-1.9032,-1.9037,-1.9067,-1.9076,-1.9083,-1.9084,-1.8975,0,0,0,0,0,-1.9102,-1.9111,-1.9093,-1.9118,-1.9117,-1.9096,-1.9099,-1.9083,-1.9077,-1.9075,-1.9064,-1.906,-1.9066,-1.9071,-1.9076,-1.9109,-1.9105,-1.9126,-1.9133,-1.9139,-1.9143,-1.9161,-1.917,-1.9074,-1.9074,-1.9074,0,0,-1.9131,-1.9121,-1.9128,-1.9128,-1.9123,-1.9134,-1.9095,-1.9107,-1.9115,-1.9077,-1.9096,-1.9088,-1.9082,-1.9109,-1.912,-1.9104,-1.9169,-1.9145,-1.915,-1.915,-1.9166,-1.9175,-1.9183,-1.9077,-1.9077,-1.9076,0,0,-1.9189,-1.9182,-1.9203,-1.9199,-1.9191,-1.9177,-1.9183,-1.9169,-1.9163,-1.9181,-1.9153,-1.9162,-1.9174,-1.9171,-1.9171,-1.923,-1.9208,-1.9232,-1.9271,-1.9288,-1.9296,-1.9302,-1.9323,-1.9331,-1.9237,-1.9237,-1.9237,0,-1.9225,-1.924,-1.9216,-1.9231,-1.9232,-1.9199,-1.922,-1.9217,-1.9212,-1.9214,-1.9196,-1.921,-1.9204,-1.923,-1.9245,-1.9246,-1.9251,-1.9233,-1.9297,-1.9303,-1.9309,-1.9328,-1.9336,-1.924,-1.9239,-1.9239,-1.9239,0,-1.9285,-1.9296,-1.9314,-1.931,-1.9313,-1.9331,-1.9311,-1.9317,-1.9301,-1.9289,-1.9309,-1.9301,-1.9303,-1.9309,-1.9292,-1.9333,-1.9323,-1.9302,-1.9269,-1.9321,-1.9339,-1.9346,-1.9244,-1.9243,-1.9242,-1.9241,0,0,-1.9371,-1.9356,-1.9362,-1.9361,-1.9351,-1.9359,-1.9377,-1.9379,-1.9386,-1.9384,-1.9398,-1.9409,-1.939,-1.939,-1.9374,-1.9389,-1.9437,-1.9365,-1.9365,-1.9378,-1.9481,-1.9496,-1.9505,-1.9422,-1.9424,-1.9425,-1.9481,0,-1.9426,-1.9453,-1.9434,-1.9465,-1.9475,-1.9445,-1.946,-1.9456,-1.9446,-1.9454,-1.9443,-1.9451,-1.9425,-1.9425,-1.9439,-1.9428,-1.9457,-1.9424,-1.9435,-1.9436,-1.9436,-1.9515,-1.9531,-1.9585,-1.9488,-1.9489,-1.949,0,-1.9492,-1.9494,-1.9526,-1.9516,-1.9519,-1.9533,-1.9535,-1.9543,-1.9538,-1.953,-1.9532,-1.9512,-1.9528,-1.9498,-1.9521,-1.9499,-1.9503,-1.9499,-1.95,-1.9499,-1.9465,-1.9516,-1.9601,-1.9609,-1.9501,-1.95,-1.9499,0,-1.9552,-1.9562,-1.9583,-1.9583,-1.9571,-1.9582,-1.9577,-1.9571,-1.9575,-1.9577,-1.9579,-1.9583,-1.9585,-1.9589,-1.9571,-1.9551,-1.9597,-1.9565,-1.9591,-1.9591,-1.96,-1.96,-1.9687,-1.9605,-1.9605,-1.9605,-1.9604,0,-1.9614,-1.9635,-1.9609,-1.9622,-1.9645,-1.9623,-1.9646,-1.9639,-1.9635,-1.9646,-1.9621,-1.9632,-1.9608,-1.9617,-1.9603,-1.9625,-1.9626,-1.962,-1.9616,-1.9622,-1.9623,-1.9623,-1.9619,-1.9607,-1.9606,-1.9606,-1.9605,0,-1.9683,-1.9667,-1.9688,-1.9676,-1.9673,-1.9691,-1.9681,-1.9692,-1.9682,-1.9696,-1.9699,-1.9682,-1.9691,-1.9674,-1.9682,-1.9673,-1.9702,-1.9693,-1.9704,-1.9701,-1.9727,-1.9725,-1.9817,-1.9828,-1.9739,-1.974,-1.9741,0,-1.9723,-1.9739,-1.9729,-1.9735,-1.9732,-1.9741,-1.9745,-1.9725,-1.973,-1.9727,-1.9739,-1.9747,-1.9751,-1.9768,-1.9757,-1.9763,-1.9753,-1.9785,-1.9753,-1.9759,-1.9753,-1.9752,-1.9753,-1.9791,-1.9792,-1.9793,-1.9793,0,-1.9797,-1.9788,-1.9794,-1.9798,-1.9804,-1.9806,-1.9806,-1.9812,-1.9791,-1.9798,-1.9807,-1.9811,-1.9819,-1.9827,-1.983,-1.9826,-1.9807,-1.9804,-1.981,-1.9815,-1.9821,-1.9818,-1.972,-1.9801,-1.9801,-1.98,-1.98,-1.9799,-1.9852,-1.9865,-1.986,-1.9868,-1.9866,-1.9868,-1.9878,-1.9869,-1.9877,-1.9881,-1.9869,-1.9882,-1.9879,-1.9881,-1.988,-1.989,-1.9876,-1.9885,-1.9887,-1.9889,-1.9893,-1.982,-1.989,-1.989,-1.989,-1.989,-1.989,0,-1.9924,-1.9919,-1.9927,-1.9929,-1.9935,-1.9917,-1.9917,-1.9923,-1.9935,-1.9934,-1.9939,-1.9951,-1.9959,-1.9949,-1.9955,-1.9965,-1.9956,-1.9968,-1.9966,-1.9966,-1.9906,-1.9899,-1.9975,-1.9975,-1.9975,-1.9975,-1.9975,-1.9975,-1.9961,-1.9982,-1.9973,-1.9993,-1.9989,-2.0001,-2.0003,-2.0004,-2.0003,-2.0017,-2.0024,-2.0017,-2.0013,-2.0019,-2.0026,-2.0023,-2.0026,-2.004,-2.0034,-1.9978,-1.997,-1.9962,-1.9956,-2.0041,-2.0042,-2.0093,-2.0094,-2.0094]},{"header":{"parameterUnit":"m.s-1","parameterCategory":1,"la1":30.2991,"la2":30.254,"lo1":-89.0895,"lo2":-89.0444,"dy":0.0017,"dx":0.0017,"nx":28,"ny":28,"refTime":"2024-05-15T03:00:00:Z","depth":0,"parameterNumber":3,"parameterNumberName":"V-component_of_WINDS"},"data":[0,0,0,0,0,0,0,0,0,0,0,0,0,0,0,0,0,0,0,0,0,0,0,0,0,0,0,0,0,0,0,0,0,0,0,0,0,0,0,0,0,0,0,0,0,0,0,0,0,0,0,0,0,0,0,0,0,0,3.2861,3.2861,0,3.2846,3.2846,3.2845,3.2815,3.2815,3.2814,3.2814,3.2798,3.2798,3.2798,0,0,0,0,0,0,0,0,0,0,0,0,0,3.2866,3.2866,3.2861,3.2861,3.2861,3.2846,3.2846,3.2845,3.2816,3.2815,3.2814,3.2814,3.2798,3.2798,3.2798,0,0,0,0,0,0,0,0,0,0,0,0,0,3.2858,3.2866,3.2861,3.2844,3.2843,3.2846,3.2846,3.2845,3.2816,3.2815,3.2814,3.2813,3.2798,3.2798,3.2798,3.2817,0,0,3.2799,3.2799,0,0,0,0,0,0,0,0,3.2859,3.2858,3.2847,3.2845,3.2844,3.2832,3.2841,3.2836,3.2816,3.2826,3.2814,3.2813,3.281,3.2809,3.2808,3.2816,3.2816,3.2799,3.2799,3.2799,3.2799,0,0,0,0,0,0,0,3.2859,3.2859,3.2855,3.2847,3.2845,3.2837,3.2835,3.284,3.2823,3.2825,3.2823,3.2821,3.2809,3.2808,3.2808,3.2815,3.2799,3.2799,3.2799,3.2799,3.2839,3.284,0,0,0,0,0,0,3.2862,3.2859,3.2856,3.2855,3.2849,3.2838,3.2836,3.2836,3.2823,3.282,3.2822,3.282,3.2808,3.2807,3.2807,3.2828,3.2799,3.2799,3.2799,3.2838,3.2839,3.284,0,0,0,0,0,0,3.2862,3.2862,3.2856,3.2856,3.2855,3.2839,3.284,3.2837,3.2836,3.2821,3.2818,3.2824,3.2807,3.2807,3.2815,3.2827,3.2799,3.28,3.2837,3.2838,3.284,3.2871,0,0,0,0,0,0,3.2863,3.2862,3.2869,3.2857,3.2855,3.2864,3.2841,3.2837,3.2836,3.2833,3.2822,3.2819,3.2807,3.2815,3.2815,3.2827,3.28,3.2836,3.2837,3.2839,3.2869,3.2873,3.2877,0,0,0,0,0,3.2863,3.2879,3.287,3.2869,3.2863,3.2865,3.2864,3.2849,3.2837,3.2844,3.2835,3.282,3.2826,3.2816,3.2816,3.2828,3.2835,3.2837,3.2839,3.2867,3.2872,3.2877,0,0,0,0,0,0,3.2893,3.2877,3.2867,3.2879,3.2874,3.286,3.2868,3.2856,3.2854,3.2851,3.2833,3.2831,3.2841,3.2836,3.2825,3.2846,3.2828,3.283,3.2849,3.2854,3.2858,3.286,3.28,0,0,0,0,0,3.2901,3.2904,3.2889,3.2901,3.2899,3.2884,3.2885,3.2874,3.2868,3.2865,3.2856,3.2851,3.2852,3.2853,3.2853,3.2868,3.2865,3.2876,3.2881,3.2884,3.2886,3.2894,3.2899,3.2847,3.2847,3.2847,0,0,3.2918,3.2909,3.2912,3.2907,3.2902,3.2905,3.2883,3.2887,3.289,3.2866,3.2873,3.2867,3.286,3.2872,3.2876,3.2867,3.29,3.2887,3.289,3.289,3.2897,3.2902,3.2906,3.2848,3.2848,3.2848,0,0,3.2949,3.2943,3.2953,3.2948,3.294,3.293,3.2933,3.2921,3.2916,3.2923,3.2906,3.2908,3.291,3.2906,3.2904,3.2935,3.2922,3.2936,3.2958,3.2966,3.297,3.2973,3.2985,3.2989,3.2938,3.2938,3.2938,0,3.2971,3.2975,3.2959,3.2965,3.2964,3.2942,3.2952,3.2948,3.2941,3.2941,3.2931,3.2933,3.2926,3.2937,3.2945,3.2944,3.2947,3.2937,3.297,3.2974,3.2977,3.2988,3.2992,3.294,3.294,3.2939,3.2939,0,3.3002,3.3006,3.3014,3.3008,3.3008,3.3015,3.3001,3.3002,3.2992,3.2983,3.2991,3.2983,3.2981,3.2983,3.2972,3.2992,3.2987,3.2974,3.2955,3.2984,3.2994,3.2998,3.2942,3.2942,3.2941,3.2941,0,0,3.3052,3.3037,3.3041,3.3038,3.3028,3.3031,3.3038,3.3036,3.3038,3.3034,3.3039,3.3042,3.303,3.3028,3.3017,3.3024,3.3049,3.301,3.3009,3.3018,3.3071,3.3081,3.3086,3.304,3.3041,3.3042,3.3072,0,3.3082,3.3093,3.3079,3.3093,3.3096,3.3076,3.3083,3.3078,3.307,3.3071,3.3063,3.3065,3.3049,3.3048,3.3054,3.3045,3.306,3.3042,3.3046,3.3046,3.3048,3.3091,3.3101,3.3131,3.3076,3.3076,3.3077,0,3.3118,3.3116,3.313,3.312,3.3121,3.3127,3.3124,3.3126,3.312,3.3114,3.3112,3.3099,3.3106,3.3088,3.3097,3.3086,3.3086,3.3082,3.3083,3.3082,3.3063,3.3092,3.3139,3.3144,3.3083,3.3082,3.3082,0,3.3153,3.3154,3.3163,3.3161,3.3149,3.3154,3.3149,3.3143,3.3143,3.314,3.314,3.3139,3.3139,3.3138,3.3125,3.3113,3.3136,3.3117,3.3131,3.3131,3.3136,3.3136,3.3185,3.3137,3.3137,3.3137,3.3137,0,3.3188,3.3198,3.3179,3.3184,3.3194,3.3178,3.3189,3.3183,3.3177,3.3181,3.3164,3.3168,3.3151,3.3153,3.3143,3.3152,3.3152,3.3148,3.3145,3.3149,3.315,3.3149,3.3147,3.3138,3.3138,3.3137,3.3137,0,3.3229,3.3216,3.3225,3.3213,3.3211,3.3219,3.3209,3.3214,3.3205,3.3211,3.3211,3.3197,3.32,3.3187,3.3186,3.318,3.3194,3.3187,3.3196,3.3194,3.3209,3.3207,3.3258,3.3264,3.3213,3.3213,3.3214,0,3.3252,3.3259,3.3248,3.325,3.3246,3.3249,3.3249,3.3233,3.3234,3.3228,3.3234,3.3235,3.3234,3.3239,3.3229,3.3229,3.3222,3.324,3.3222,3.3227,3.3223,3.3223,3.3223,3.3244,3.3245,3.3245,3.3246,0,3.3294,3.3288,3.3288,3.3287,3.3287,3.3286,3.3283,3.3285,3.3268,3.327,3.3272,3.3272,3.3272,3.3273,3.3271,3.3267,3.3254,3.3251,3.3255,3.3259,3.3264,3.3262,3.3206,3.325,3.325,3.3249,3.3249,3.3249,3.3327,3.3332,3.3326,3.3327,3.3323,3.3321,3.3325,3.3317,3.3318,3.3317,3.3308,3.3312,3.3306,3.3302,3.3299,3.3302,3.3294,3.3298,3.33,3.3301,3.3304,3.3263,3.3302,3.3302,3.3301,3.3301,3.3301,0,3.3368,3.3363,3.3364,3.3361,3.3362,3.335,3.3346,3.3348,3.3352,3.3348,3.3348,3.335,3.3352,3.3342,3.3342,3.3346,3.334,3.3347,3.3346,3.3346,3.3311,3.3308,3.3352,3.3352,3.3352,3.3352,3.3352,3.3352,3.339,3.3398,3.3391,3.3398,3.3393,3.3397,3.3396,3.3394,3.339,3.3394,3.3395,3.3389,3.3383,3.3382,3.3383,3.338,3.3381,3.339,3.3385,3.3353,3.3348,3.3343,3.3341,3.339,3.339,3.3419,3.3419,3.342]}]]